Location: Godiavel Galaoual
(15.2485°N, 12.6604°W)
Time: 04:32:40
(UTC+00:00)

Explorer 7 - Pass Details

Date: 23 June 2021
Orbit: 484 x 676 km, 50.3° (Epoch: 03 August)

Event Time Altitude Azimuth Distance (km) Brightness Sun altitude
Enters shadow 05:12:19 - 307° (NW) 2,834 10.2 -15.8°
Exits shadow 05:14:41 - 298° (WNW) 1,950 9.3 -15.3°
Reaches altitude 10° 05:14:57 10° 296° (WNW) 1,858 9.2 -15.2°
Maximum altitude 05:18:39 30° 235° (SW) 992 7.5 -14.4°
Drops below altitude 10° 05:22:10 10° 173° (S) 1,756 9.2 -13.7°
Sets 05:24:30 0° 162° (SSE) 2,612 10.2 -13.2°
